﻿_id,日時,10分間移動積算雨量(mm),1時間移動積算雨量(mm),日雨量(mm),累計雨量(mm)
1,2020-09-07T00:00:00,0,0,10,23.5
2,2020-09-07T00:01:00,0,0,0,23.5
3,2020-09-07T00:02:00,0,0,0,23.5
4,2020-09-07T00:03:00,0,0,0,23.5
5,2020-09-07T00:04:00,0,0,0,23.5
6,2020-09-07T00:05:00,0,0,0,23.5
7,2020-09-07T00:06:00,0,0,0,23.5
8,2020-09-07T00:07:00,0,0,0,23.5
9,2020-09-07T00:08:00,0,0,0,23.5
10,2020-09-07T00:09:00,0,0,0,23.5
11,2020-09-07T00:10:00,0,0,0,23.5
12,2020-09-07T00:11:00,0,0,0,23.5
13,2020-09-07T00:12:00,0,0,0,23.5
14,2020-09-07T00:13:00,0,0,0,23.5
15,2020-09-07T00:14:00,0,0,0,23.5
16,2020-09-07T00:15:00,0,0,0,23.5
17,2020-09-07T00:16:00,0,0,0,23.5
18,2020-09-07T00:17:00,0,0,0,23.5
19,2020-09-07T00:18:00,0,0,0,23.5
20,2020-09-07T00:19:00,0,0,0,23.5
21,2020-09-07T00:20:00,0,0,0,23.5
22,2020-09-07T00:21:00,0,0,0,23.5
23,2020-09-07T00:22:00,0,0,0,23.5
24,2020-09-07T00:23:00,0,0,0,23.5
25,2020-09-07T00:24:00,0,0,0,23.5
26,2020-09-07T00:25:00,0,0,0,23.5
27,2020-09-07T00:26:00,0,0,0,23.5
28,2020-09-07T00:27:00,0,0,0,23.5
29,2020-09-07T00:28:00,0,0,0,23.5
30,2020-09-07T00:29:00,0,0,0,23.5
31,2020-09-07T00:30:00,0,0,0,23.5
32,2020-09-07T00:31:00,0,0,0,23.5
33,2020-09-07T00:32:00,0,0,0,23.5
34,2020-09-07T00:33:00,0,0,0,23.5
35,2020-09-07T00:34:00,0,0,0,23.5
36,2020-09-07T00:35:00,0,0,0,23.5
37,2020-09-07T00:36:00,0,0,0,23.5
38,2020-09-07T00:37:00,0,0,0,23.5
39,2020-09-07T00:38:00,0,0,0,23.5
40,2020-09-07T00:39:00,0,0,0,23.5
41,2020-09-07T00:40:00,0,0,0,23.5
42,2020-09-07T00:41:00,0,0,0,23.5
43,2020-09-07T00:42:00,0,0,0,23.5
44,2020-09-07T00:43:00,0,0,0,23.5
45,2020-09-07T00:44:00,0,0,0,23.5
46,2020-09-07T00:45:00,0,0,0,23.5
47,2020-09-07T00:46:00,0,0,0,23.5
48,2020-09-07T00:47:00,0,0,0,23.5
49,2020-09-07T00:48:00,0,0,0,23.5
50,2020-09-07T00:49:00,0,0,0,23.5
51,2020-09-07T00:50:00,0,0,0,23.5
52,2020-09-07T00:51:00,0,0,0,23.5
53,2020-09-07T00:52:00,0,0,0,23.5
54,2020-09-07T00:53:00,0,0,0,23.5
55,2020-09-07T00:54:00,0,0,0,23.5
56,2020-09-07T00:55:00,0,0,0,23.5
57,2020-09-07T00:56:00,0,0,0,23.5
58,2020-09-07T00:57:00,0,0,0,23.5
59,2020-09-07T00:58:00,0,0,0,23.5
60,2020-09-07T00:59:00,0,0,0,23.5
61,2020-09-07T01:00:00,0,0,0,23.5
62,2020-09-07T01:01:00,0,0,0,23.5
63,2020-09-07T01:02:00,0,0,0,23.5
64,2020-09-07T01:03:00,0,0,0,23.5
65,2020-09-07T01:04:00,0,0,0,23.5
66,2020-09-07T01:05:00,0,0,0,23.5
67,2020-09-07T01:06:00,0,0,0,23.5
68,2020-09-07T01:07:00,0,0,0,23.5
69,2020-09-07T01:08:00,0,0,0,23.5
70,2020-09-07T01:09:00,0,0,0,23.5
71,2020-09-07T01:10:00,0,0,0,23.5
72,2020-09-07T01:11:00,0,0,0,23.5
73,2020-09-07T01:12:00,0,0,0,23.5
74,2020-09-07T01:13:00,0,0,0,23.5
75,2020-09-07T01:14:00,0,0,0,23.5
76,2020-09-07T01:15:00,0,0,0,23.5
77,2020-09-07T01:16:00,0,0,0,23.5
78,2020-09-07T01:17:00,0,0,0,23.5
79,2020-09-07T01:18:00,0,0,0,23.5
80,2020-09-07T01:19:00,0,0,0,23.5
81,2020-09-07T01:20:00,0,0,0,23.5
82,2020-09-07T01:21:00,0,0,0,23.5
83,2020-09-07T01:22:00,0,0,0,23.5
84,2020-09-07T01:23:00,0,0,0,23.5
85,2020-09-07T01:24:00,0,0,0,23.5
86,2020-09-07T01:25:00,0,0,0,23.5
87,2020-09-07T01:26:00,0,0,0,23.5
88,2020-09-07T01:27:00,0,0,0,23.5
89,2020-09-07T01:28:00,0,0,0,23.5
90,2020-09-07T01:29:00,0,0,0,23.5
91,2020-09-07T01:30:00,0,0,0,23.5
92,2020-09-07T01:31:00,0,0,0,23.5
93,2020-09-07T01:32:00,0,0,0,23.5
94,2020-09-07T01:33:00,0,0,0,23.5
95,2020-09-07T01:34:00,0,0,0,23.5
96,2020-09-07T01:35:00,0,0,0,23.5
97,2020-09-07T01:36:00,0,0,0,23.5
98,2020-09-07T01:37:00,0,0,0,23.5
99,2020-09-07T01:38:00,0,0,0,23.5
100,2020-09-07T01:39:00,0,0,0,23.5
101,2020-09-07T01:40:00,0,0,0,23.5
102,2020-09-07T01:41:00,0,0,0,23.5
103,2020-09-07T01:42:00,0,0,0,23.5
104,2020-09-07T01:43:00,0,0,0,23.5
105,2020-09-07T01:44:00,0,0,0,23.5
106,2020-09-07T01:45:00,0,0,0,23.5
107,2020-09-07T01:46:00,0,0,0,23.5
108,2020-09-07T01:47:00,0,0,0,23.5
109,2020-09-07T01:48:00,0,0,0,23.5
110,2020-09-07T01:49:00,0,0,0,23.5
111,2020-09-07T01:50:00,0,0,0,23.5
112,2020-09-07T01:51:00,0,0,0,23.5
113,2020-09-07T01:52:00,0,0,0,23.5
114,2020-09-07T01:53:00,0,0,0,23.5
115,2020-09-07T01:54:00,0,0,0,23.5
116,2020-09-07T01:55:00,0,0,0,23.5
117,2020-09-07T01:56:00,0,0,0,23.5
118,2020-09-07T01:57:00,0,0,0,23.5
119,2020-09-07T01:58:00,0,0,0,23.5
120,2020-09-07T01:59:00,0,0,0,23.5
121,2020-09-07T02:00:00,0,0,0,23.5
122,2020-09-07T02:01:00,0,0,0,23.5
123,2020-09-07T02:02:00,0,0,0,23.5
124,2020-09-07T02:03:00,0,0,0,23.5
125,2020-09-07T02:04:00,0,0,0,23.5
126,2020-09-07T02:05:00,0,0,0,23.5
127,2020-09-07T02:06:00,0,0,0,23.5
128,2020-09-07T02:07:00,0,0,0,23.5
129,2020-09-07T02:08:00,0,0,0,23.5
130,2020-09-07T02:09:00,0,0,0,23.5
131,2020-09-07T02:10:00,0,0,0,23.5
132,2020-09-07T02:11:00,0,0,0,23.5
133,2020-09-07T02:12:00,0,0,0,23.5
134,2020-09-07T02:13:00,0,0,0,23.5
135,2020-09-07T02:14:00,0,0,0,23.5
136,2020-09-07T02:15:00,0,0,0,23.5
137,2020-09-07T02:16:00,0,0,0,23.5
138,2020-09-07T02:17:00,0,0,0,23.5
139,2020-09-07T02:18:00,0,0,0,23.5
140,2020-09-07T02:19:00,0,0,0,23.5
141,2020-09-07T02:20:00,0,0,0,23.5
142,2020-09-07T02:21:00,0,0,0,23.5
143,2020-09-07T02:22:00,0,0,0,23.5
144,2020-09-07T02:23:00,0,0,0,23.5
145,2020-09-07T02:24:00,0,0,0,23.5
146,2020-09-07T02:25:00,0,0,0,23.5
147,2020-09-07T02:26:00,0,0,0,23.5
148,2020-09-07T02:27:00,0,0,0,23.5
149,2020-09-07T02:28:00,0,0,0,23.5
150,2020-09-07T02:29:00,0,0,0,23.5
151,2020-09-07T02:30:00,0,0,0,23.5
152,2020-09-07T02:31:00,0,0,0,23.5
153,2020-09-07T02:32:00,0,0,0,23.5
154,2020-09-07T02:33:00,0,0,0,23.5
155,2020-09-07T02:34:00,0,0,0,23.5
156,2020-09-07T02:35:00,0,0,0,23.5
157,2020-09-07T02:36:00,0,0,0,23.5
158,2020-09-07T02:37:00,0,0,0,23.5
159,2020-09-07T02:38:00,0,0,0,23.5
160,2020-09-07T02:39:00,0,0,0,23.5
161,2020-09-07T02:40:00,0,0,0,23.5
162,2020-09-07T02:41:00,0,0,0,23.5
163,2020-09-07T02:42:00,0,0,0,23.5
164,2020-09-07T02:43:00,0,0,0,23.5
165,2020-09-07T02:44:00,0,0,0,23.5
166,2020-09-07T02:45:00,0,0,0,23.5
167,2020-09-07T02:46:00,0,0,0,23.5
168,2020-09-07T02:47:00,0,0,0,23.5
169,2020-09-07T02:48:00,0,0,0,23.5
170,2020-09-07T02:49:00,0,0,0,23.5
171,2020-09-07T02:50:00,0,0,0,23.5
172,2020-09-07T02:51:00,0,0,0,23.5
173,2020-09-07T02:52:00,0,0,0,23.5
174,2020-09-07T02:53:00,0,0,0,23.5
175,2020-09-07T02:54:00,0,0,0,23.5
176,2020-09-07T02:55:00,0,0,0,23.5
177,2020-09-07T02:56:00,0,0,0,23.5
178,2020-09-07T02:57:00,0,0,0,23.5
179,2020-09-07T02:58:00,0,0,0,23.5
180,2020-09-07T02:59:00,0,0,0,23.5
181,2020-09-07T03:00:00,0,0,0,23.5
182,2020-09-07T03:01:00,0,0,0,23.5
183,2020-09-07T03:02:00,0,0,0,23.5
184,2020-09-07T03:03:00,0,0,0,23.5
185,2020-09-07T03:04:00,0,0,0,23.5
186,2020-09-07T03:05:00,0,0,0,23.5
187,2020-09-07T03:06:00,0,0,0,23.5
188,2020-09-07T03:07:00,0,0,0,23.5
189,2020-09-07T03:08:00,0,0,0,23.5
190,2020-09-07T03:09:00,0,0,0,23.5
191,2020-09-07T03:10:00,0,0,0,23.5
192,2020-09-07T03:11:00,0,0,0,23.5
193,2020-09-07T03:12:00,0,0,0,23.5
194,2020-09-07T03:13:00,0,0,0,23.5
195,2020-09-07T03:14:00,0,0,0,23.5
196,2020-09-07T03:15:00,0,0,0,23.5
197,2020-09-07T03:16:00,0,0,0,23.5
198,2020-09-07T03:17:00,0,0,0,23.5
199,2020-09-07T03:18:00,0,0,0,23.5
200,2020-09-07T03:19:00,0,0,0,23.5
201,2020-09-07T03:20:00,0,0,0,23.5
202,2020-09-07T03:21:00,0,0,0,23.5
203,2020-09-07T03:22:00,0,0,0,23.5
204,2020-09-07T03:23:00,0,0,0,23.5
205,2020-09-07T03:24:00,0,0,0,23.5
206,2020-09-07T03:25:00,0,0,0,23.5
207,2020-09-07T03:26:00,0,0,0,23.5
208,2020-09-07T03:27:00,0,0,0,23.5
209,2020-09-07T03:28:00,0,0,0,23.5
210,2020-09-07T03:29:00,0,0,0,23.5
211,2020-09-07T03:30:00,0,0,0,23.5
212,2020-09-07T03:31:00,0,0,0,23.5
213,2020-09-07T03:32:00,0,0,0,23.5
214,2020-09-07T03:33:00,0,0,0,23.5
215,2020-09-07T03:34:00,0,0,0,23.5
216,2020-09-07T03:35:00,0,0,0,23.5
217,2020-09-07T03:36:00,0,0,0,23.5
218,2020-09-07T03:37:00,0,0,0,23.5
219,2020-09-07T03:38:00,0,0,0,23.5
220,2020-09-07T03:39:00,0,0,0,23.5
221,2020-09-07T03:40:00,0,0,0,23.5
222,2020-09-07T03:41:00,0,0,0,23.5
223,2020-09-07T03:42:00,0,0,0,23.5
224,2020-09-07T03:43:00,0,0,0,23.5
225,2020-09-07T03:44:00,0,0,0,23.5
226,2020-09-07T03:45:00,0,0,0,23.5
227,2020-09-07T03:46:00,0,0,0,23.5
228,2020-09-07T03:47:00,0,0,0,23.5
229,2020-09-07T03:48:00,0,0,0,23.5
230,2020-09-07T03:49:00,0,0,0,23.5
231,2020-09-07T03:50:00,0,0,0,23.5
232,2020-09-07T03:51:00,0,0,0,23.5
233,2020-09-07T03:52:00,0,0,0,23.5
234,2020-09-07T03:53:00,0,0,0,23.5
235,2020-09-07T03:54:00,0,0,0,23.5
236,2020-09-07T03:55:00,0,0,0,23.5
237,2020-09-07T03:56:00,0,0,0,23.5
238,2020-09-07T03:57:00,0,0,0,23.5
239,2020-09-07T03:58:00,0,0,0,23.5
240,2020-09-07T03:59:00,0,0,0,23.5
241,2020-09-07T04:00:00,0,0,0,23.5
242,2020-09-07T04:01:00,0,0,0,23.5
243,2020-09-07T04:02:00,0,0,0,23.5
244,2020-09-07T04:03:00,0,0,0,23.5
245,2020-09-07T04:04:00,0,0,0,23.5
246,2020-09-07T04:05:00,0,0,0,23.5
247,2020-09-07T04:06:00,0,0,0,23.5
248,2020-09-07T04:07:00,0,0,0,23.5
249,2020-09-07T04:08:00,0,0,0,23.5
250,2020-09-07T04:09:00,0,0,0,23.5
251,2020-09-07T04:10:00,0,0,0,23.5
252,2020-09-07T04:11:00,0,0,0,23.5
253,2020-09-07T04:12:00,0,0,0,23.5
254,2020-09-07T04:13:00,0,0,0,23.5
255,2020-09-07T04:14:00,0,0,0,23.5
256,2020-09-07T04:15:00,0,0,0,23.5
257,2020-09-07T04:16:00,0,0,0,23.5
258,2020-09-07T04:17:00,0,0,0,23.5
259,2020-09-07T04:18:00,0,0,0,23.5
260,2020-09-07T04:19:00,0,0,0,23.5
261,2020-09-07T04:20:00,0,0,0,23.5
262,2020-09-07T04:21:00,0,0,0,23.5
263,2020-09-07T04:22:00,0,0,0,23.5
264,2020-09-07T04:23:00,0,0,0,23.5
265,2020-09-07T04:24:00,0,0,0,23.5
266,2020-09-07T04:25:00,0,0,0,23.5
267,2020-09-07T04:26:00,0,0,0,23.5
268,2020-09-07T04:27:00,0,0,0,23.5
269,2020-09-07T04:28:00,0,0,0,23.5
270,2020-09-07T04:29:00,0,0,0,23.5
271,2020-09-07T04:30:00,0,0,0,23.5
272,2020-09-07T04:31:00,0,0,0,23.5
273,2020-09-07T04:32:00,0,0,0,23.5
274,2020-09-07T04:33:00,0,0,0,23.5
275,2020-09-07T04:34:00,0,0,0,23.5
276,2020-09-07T04:35:00,0,0,0,23.5
277,2020-09-07T04:36:00,0,0,0,23.5
278,2020-09-07T04:37:00,0,0,0,23.5
279,2020-09-07T04:38:00,0,0,0,23.5
280,2020-09-07T04:39:00,0,0,0,23.5
281,2020-09-07T04:40:00,0,0,0,23.5
282,2020-09-07T04:41:00,0,0,0,23.5
283,2020-09-07T04:42:00,0,0,0,23.5
284,2020-09-07T04:43:00,0,0,0,23.5
285,2020-09-07T04:44:00,0,0,0,23.5
286,2020-09-07T04:45:00,0,0,0,23.5
287,2020-09-07T04:46:00,0,0,0,23.5
288,2020-09-07T04:47:00,0,0,0,23.5
289,2020-09-07T04:48:00,0,0,0,23.5
290,2020-09-07T04:49:00,0,0,0,23.5
291,2020-09-07T04:50:00,0,0,0,23.5
292,2020-09-07T04:51:00,0,0,0,23.5
293,2020-09-07T04:52:00,0,0,0,23.5
294,2020-09-07T04:53:00,0,0,0,23.5
295,2020-09-07T04:54:00,0,0,0,23.5
296,2020-09-07T04:55:00,0,0,0,23.5
297,2020-09-07T04:56:00,0,0,0,23.5
298,2020-09-07T04:57:00,0,0,0,23.5
299,2020-09-07T04:58:00,0,0,0,23.5
300,2020-09-07T04:59:00,0,0,0,23.5
301,2020-09-07T05:00:00,0,0,0,23.5
302,2020-09-07T05:01:00,0,0,0,23.5
303,2020-09-07T05:02:00,0,0,0,23.5
304,2020-09-07T05:03:00,0,0,0,23.5
305,2020-09-07T05:04:00,0,0,0,23.5
306,2020-09-07T05:05:00,0,0,0,23.5
307,2020-09-07T05:06:00,0,0,0,23.5
308,2020-09-07T05:07:00,0,0,0,23.5
309,2020-09-07T05:08:00,0,0,0,23.5
310,2020-09-07T05:09:00,0,0,0,23.5
311,2020-09-07T05:10:00,0,0,0,23.5
312,2020-09-07T05:11:00,0,0,0,23.5
313,2020-09-07T05:12:00,0,0,0,23.5
314,2020-09-07T05:13:00,0,0,0,23.5
315,2020-09-07T05:14:00,0,0,0,23.5
316,2020-09-07T05:15:00,0,0,0,23.5
317,2020-09-07T05:16:00,0,0,0,23.5
318,2020-09-07T05:17:00,0,0,0,23.5
319,2020-09-07T05:18:00,0,0,0,23.5
320,2020-09-07T05:19:00,0,0,0,23.5
321,2020-09-07T05:20:00,0,0,0,23.5
322,2020-09-07T05:21:00,0,0,0,23.5
323,2020-09-07T05:22:00,0,0,0,23.5
324,2020-09-07T05:23:00,0,0,0,23.5
325,2020-09-07T05:24:00,0,0,0,23.5
326,2020-09-07T05:25:00,0,0,0,23.5
327,2020-09-07T05:26:00,0,0,0,23.5
328,2020-09-07T05:27:00,0,0,0,23.5
329,2020-09-07T05:28:00,0,0,0,23.5
330,2020-09-07T05:29:00,0,0,0,23.5
331,2020-09-07T05:30:00,0,0,0,23.5
332,2020-09-07T05:31:00,0,0,0,23.5
333,2020-09-07T05:32:00,0,0,0,23.5
334,2020-09-07T05:33:00,0,0,0,23.5
335,2020-09-07T05:34:00,0,0,0,23.5
336,2020-09-07T05:35:00,0,0,0,23.5
337,2020-09-07T05:36:00,0,0,0,23.5
338,2020-09-07T05:37:00,0,0,0,23.5
339,2020-09-07T05:38:00,0,0,0,23.5
340,2020-09-07T05:39:00,0,0,0,23.5
341,2020-09-07T05:40:00,0,0,0,23.5
342,2020-09-07T05:41:00,0,0,0,23.5
343,2020-09-07T05:42:00,0,0,0,23.5
344,2020-09-07T05:43:00,0,0,0,23.5
345,2020-09-07T05:44:00,0,0,0,23.5
346,2020-09-07T05:45:00,0,0,0,23.5
347,2020-09-07T05:46:00,0,0,0,23.5
348,2020-09-07T05:47:00,0,0,0,23.5
349,2020-09-07T05:48:00,0,0,0,23.5
350,2020-09-07T05:49:00,0,0,0,23.5
351,2020-09-07T05:50:00,0,0,0,23.5
352,2020-09-07T05:51:00,0,0,0,23.5
353,2020-09-07T05:52:00,0,0,0,23.5
354,2020-09-07T05:53:00,0,0,0,23.5
355,2020-09-07T05:54:00,0,0,0,23.5
356,2020-09-07T05:55:00,0,0,0,23.5
357,2020-09-07T05:56:00,0,0,0,23.5
358,2020-09-07T05:57:00,0,0,0,23.5
359,2020-09-07T05:58:00,0,0,0,23.5
360,2020-09-07T05:59:00,0,0,0,23.5
361,2020-09-07T06:00:00,0,0,0,23.5
362,2020-09-07T06:01:00,0,0,0,23.5
363,2020-09-07T06:02:00,0,0,0,23.5
364,2020-09-07T06:03:00,0,0,0,23.5
365,2020-09-07T06:04:00,0,0,0,23.5
366,2020-09-07T06:05:00,0,0,0,23.5
367,2020-09-07T06:06:00,0,0,0,23.5
368,2020-09-07T06:07:00,0,0,0,23.5
369,2020-09-07T06:08:00,0,0,0,23.5
370,2020-09-07T06:09:00,0,0,0,23.5
371,2020-09-07T06:10:00,0,0,0,23.5
372,2020-09-07T06:11:00,0,0,0,23.5
373,2020-09-07T06:12:00,0,0,0,23.5
374,2020-09-07T06:13:00,0,0,0,23.5
375,2020-09-07T06:14:00,0,0,0,23.5
376,2020-09-07T06:15:00,0,0,0,23.5
377,2020-09-07T06:16:00,0,0,0,23.5
378,2020-09-07T06:17:00,0,0,0,23.5
379,2020-09-07T06:18:00,0,0,0,23.5
380,2020-09-07T06:19:00,0,0,0,23.5
381,2020-09-07T06:20:00,0,0,0,23.5
382,2020-09-07T06:21:00,0,0,0,23.5
383,2020-09-07T06:22:00,0,0,0,23.5
384,2020-09-07T06:23:00,0,0,0,23.5
385,2020-09-07T06:24:00,0,0,0,23.5
386,2020-09-07T06:25:00,0,0,0,23.5
387,2020-09-07T06:26:00,0,0,0,23.5
388,2020-09-07T06:27:00,0,0,0,23.5
389,2020-09-07T06:28:00,0,0,0,23.5
390,2020-09-07T06:29:00,0,0,0,23.5
391,2020-09-07T06:30:00,0,0,0,23.5
392,2020-09-07T06:31:00,0,0,0,23.5
393,2020-09-07T06:32:00,0,0,0,23.5
394,2020-09-07T06:33:00,0,0,0,23.5
395,2020-09-07T06:34:00,0,0,0,23.5
396,2020-09-07T06:35:00,0,0,0,23.5
397,2020-09-07T06:36:00,0,0,0,23.5
398,2020-09-07T06:37:00,0,0,0,23.5
399,2020-09-07T06:38:00,0,0,0,23.5
400,2020-09-07T06:39:00,0,0,0,23.5
401,2020-09-07T06:40:00,0,0,0,23.5
402,2020-09-07T06:41:00,0,0,0,23.5
403,2020-09-07T06:42:00,0,0,0,23.5
404,2020-09-07T06:43:00,0,0,0,23.5
405,2020-09-07T06:44:00,0,0,0,23.5
406,2020-09-07T06:45:00,0,0,0,23.5
407,2020-09-07T06:46:00,0,0,0,23.5
408,2020-09-07T06:47:00,0,0,0,23.5
409,2020-09-07T06:48:00,0,0,0,23.5
410,2020-09-07T06:49:00,0,0,0,23.5
411,2020-09-07T06:50:00,0,0,0,23.5
412,2020-09-07T06:51:00,0,0,0,23.5
413,2020-09-07T06:52:00,0,0,0,23.5
414,2020-09-07T06:53:00,0,0,0,23.5
415,2020-09-07T06:54:00,0,0,0,23.5
416,2020-09-07T06:55:00,0,0,0,23.5
417,2020-09-07T06:56:00,0,0,0,23.5
418,2020-09-07T06:57:00,0,0,0,23.5
419,2020-09-07T06:58:00,0,0,0,23.5
420,2020-09-07T06:59:00,0,0,0,23.5
421,2020-09-07T07:00:00,0,0,0,23.5
422,2020-09-07T07:01:00,0,0,0,23.5
423,2020-09-07T07:02:00,0,0,0,23.5
424,2020-09-07T07:03:00,0,0,0,23.5
425,2020-09-07T07:04:00,0,0,0,23.5
426,2020-09-07T07:05:00,0,0,0,23.5
427,2020-09-07T07:06:00,0,0,0,23.5
428,2020-09-07T07:07:00,0,0,0,23.5
429,2020-09-07T07:08:00,0,0,0,23.5
430,2020-09-07T07:09:00,0,0,0,23.5
431,2020-09-07T07:10:00,0,0,0,23.5
432,2020-09-07T07:11:00,0,0,0,23.5
433,2020-09-07T07:12:00,0,0,0,23.5
434,2020-09-07T07:13:00,0,0,0,23.5
435,2020-09-07T07:14:00,0,0,0,23.5
436,2020-09-07T07:15:00,0,0,0,23.5
437,2020-09-07T07:16:00,0,0,0,23.5
438,2020-09-07T07:17:00,0,0,0,23.5
439,2020-09-07T07:18:00,0,0,0,23.5
440,2020-09-07T07:19:00,0,0,0,23.5
441,2020-09-07T07:20:00,0,0,0,23.5
442,2020-09-07T07:21:00,0,0,0,23.5
443,2020-09-07T07:22:00,0,0,0,23.5
444,2020-09-07T07:23:00,0,0,0,23.5
445,2020-09-07T07:24:00,0,0,0,23.5
446,2020-09-07T07:25:00,0,0,0,23.5
447,2020-09-07T07:26:00,0,0,0,23.5
448,2020-09-07T07:27:00,0,0,0,23.5
449,2020-09-07T07:28:00,0,0,0,23.5
450,2020-09-07T07:29:00,0,0,0,23.5
451,2020-09-07T07:30:00,0,0,0,23.5
452,2020-09-07T07:31:00,0,0,0,23.5
453,2020-09-07T07:32:00,0,0,0,23.5
454,2020-09-07T07:33:00,0,0,0,23.5
455,2020-09-07T07:34:00,0,0,0,23.5
456,2020-09-07T07:35:00,0,0,0,23.5
457,2020-09-07T07:36:00,0,0,0,23.5
458,2020-09-07T07:37:00,0,0,0,23.5
459,2020-09-07T07:38:00,0,0,0,23.5
460,2020-09-07T07:39:00,0,0,0,23.5
461,2020-09-07T07:40:00,0,0,0,23.5
462,2020-09-07T07:41:00,0,0,0,23.5
463,2020-09-07T07:42:00,0,0,0,23.5
464,2020-09-07T07:43:00,0,0,0,23.5
465,2020-09-07T07:44:00,0,0,0,23.5
466,2020-09-07T07:45:00,0,0,0,23.5
467,2020-09-07T07:46:00,0,0,0,23.5
468,2020-09-07T07:47:00,0,0,0,23.5
469,2020-09-07T07:48:00,0,0,0,23.5
470,2020-09-07T07:49:00,0,0,0,23.5
471,2020-09-07T07:50:00,0,0,0,23.5
472,2020-09-07T07:51:00,0,0,0,23.5
473,2020-09-07T07:52:00,0,0,0,23.5
474,2020-09-07T07:53:00,0,0,0,23.5
475,2020-09-07T07:54:00,0,0,0,23.5
476,2020-09-07T07:55:00,0,0,0,23.5
477,2020-09-07T07:56:00,0,0,0,23.5
478,2020-09-07T07:57:00,0,0,0,23.5
479,2020-09-07T07:58:00,0,0,0,23.5
480,2020-09-07T07:59:00,0,0,0,23.5
481,2020-09-07T08:00:00,0,0,0,23.5
482,2020-09-07T08:01:00,0,0,0,23.5
483,2020-09-07T08:02:00,0,0,0,23.5
484,2020-09-07T08:03:00,0,0,0,23.5
485,2020-09-07T08:04:00,0,0,0,23.5
486,2020-09-07T08:05:00,0,0,0,23.5
487,2020-09-07T08:06:00,0,0,0,23.5
488,2020-09-07T08:07:00,0,0,0,23.5
489,2020-09-07T08:08:00,0,0,0,23.5
490,2020-09-07T08:09:00,0,0,0,23.5
491,2020-09-07T08:10:00,0,0,0,23.5
492,2020-09-07T08:11:00,0,0,0,23.5
493,2020-09-07T08:12:00,0,0,0,23.5
494,2020-09-07T08:13:00,0.5,0.5,0.5,24
495,2020-09-07T08:14:00,0.5,0.5,0.5,24
496,2020-09-07T08:15:00,0.5,0.5,0.5,24
497,2020-09-07T08:16:00,0.5,0.5,0.5,24
498,2020-09-07T08:17:00,0.5,0.5,0.5,24
499,2020-09-07T08:18:00,0.5,0.5,0.5,24
500,2020-09-07T08:19:00,0.5,0.5,0.5,24
501,2020-09-07T08:20:00,,,,
502,2020-09-07T08:21:00,0.5,0.5,0.5,24
503,2020-09-07T08:22:00,0.5,0.5,0.5,24
504,2020-09-07T08:23:00,0,0.5,0.5,24
505,2020-09-07T08:24:00,0,0.5,0.5,24
506,2020-09-07T08:25:00,0,0.5,0.5,24
507,2020-09-07T08:26:00,0,0.5,0.5,24
508,2020-09-07T08:27:00,0,0.5,0.5,24
509,2020-09-07T08:28:00,0,0.5,0.5,24
510,2020-09-07T08:29:00,0,0.5,0.5,24
511,2020-09-07T08:30:00,0,0.5,0.5,24
512,2020-09-07T08:31:00,0,0.5,0.5,24
513,2020-09-07T08:32:00,0,0.5,0.5,24
514,2020-09-07T08:33:00,0,0.5,0.5,24
515,2020-09-07T08:34:00,0,0.5,0.5,24
516,2020-09-07T08:35:00,0,0.5,0.5,24
517,2020-09-07T08:36:00,0,0.5,0.5,24
518,2020-09-07T08:37:00,0,0.5,0.5,24
519,2020-09-07T08:38:00,0,0.5,0.5,24
520,2020-09-07T08:39:00,0,0.5,0.5,24
521,2020-09-07T08:40:00,0,0.5,0.5,24
522,2020-09-07T08:41:00,0,0.5,0.5,24
523,2020-09-07T08:42:00,0,0.5,0.5,24
524,2020-09-07T08:43:00,0,0.5,0.5,24
525,2020-09-07T08:44:00,0,0.5,0.5,24
526,2020-09-07T08:45:00,0,0.5,0.5,24
527,2020-09-07T08:46:00,0,0.5,0.5,24
528,2020-09-07T08:47:00,0,0.5,0.5,24
529,2020-09-07T08:48:00,0,0.5,0.5,24
530,2020-09-07T08:49:00,0,0.5,0.5,24
531,2020-09-07T08:50:00,0,0.5,0.5,24
532,2020-09-07T08:51:00,0,0.5,0.5,24
533,2020-09-07T08:52:00,0,0.5,0.5,24
534,2020-09-07T08:53:00,0,0.5,0.5,24
535,2020-09-07T08:54:00,0,0.5,0.5,24
536,2020-09-07T08:55:00,0,0.5,0.5,24
537,2020-09-07T08:56:00,0,0.5,0.5,24
538,2020-09-07T08:57:00,0,0.5,0.5,24
539,2020-09-07T08:58:00,0,0.5,0.5,24
540,2020-09-07T08:59:00,0,0.5,0.5,24
541,2020-09-07T09:00:00,0,0.5,0.5,24
542,2020-09-07T09:01:00,0,0.5,0.5,24
543,2020-09-07T09:02:00,0,0.5,0.5,24
544,2020-09-07T09:03:00,0,0.5,0.5,24
545,2020-09-07T09:04:00,0,0.5,0.5,24
546,2020-09-07T09:05:00,0,0.5,0.5,24
547,2020-09-07T09:06:00,0,0.5,0.5,24
548,2020-09-07T09:07:00,0,0.5,0.5,24
549,2020-09-07T09:08:00,0,0.5,0.5,24
550,2020-09-07T09:09:00,0,0.5,0.5,24
551,2020-09-07T09:10:00,0,0.5,0.5,24
552,2020-09-07T09:11:00,0,0.5,0.5,24
553,2020-09-07T09:12:00,0,0.5,0.5,24
554,2020-09-07T09:13:00,0,0,0.5,24
555,2020-09-07T09:14:00,0,0,0.5,24
556,2020-09-07T09:15:00,0,0,0.5,24
557,2020-09-07T09:16:00,0,0,0.5,24
558,2020-09-07T09:17:00,0,0,0.5,24
559,2020-09-07T09:18:00,0,0,0.5,24
560,2020-09-07T09:19:00,0,0,0.5,24
561,2020-09-07T09:20:00,0,0,0.5,24
562,2020-09-07T09:21:00,0,0,0.5,24
563,2020-09-07T09:22:00,0,0,0.5,24
564,2020-09-07T09:23:00,0,0,0.5,24
565,2020-09-07T09:24:00,0,0,0.5,24
566,2020-09-07T09:25:00,0,0,0.5,24
567,2020-09-07T09:26:00,0,0,0.5,24
568,2020-09-07T09:27:00,0,0,0.5,24
569,2020-09-07T09:28:00,0,0,0.5,24
570,2020-09-07T09:29:00,0,0,0.5,24
571,2020-09-07T09:30:00,0,0,0.5,24
572,2020-09-07T09:31:00,0,0,0.5,24
573,2020-09-07T09:32:00,0,0,0.5,24
574,2020-09-07T09:33:00,0,0,0.5,24
575,2020-09-07T09:34:00,0,0,0.5,24
576,2020-09-07T09:35:00,0,0,0.5,24
577,2020-09-07T09:36:00,0,0,0.5,24
578,2020-09-07T09:37:00,0,0,0.5,24
579,2020-09-07T09:38:00,0,0,0.5,24
580,2020-09-07T09:39:00,0,0,0.5,24
581,2020-09-07T09:40:00,0,0,0.5,24
582,2020-09-07T09:41:00,0,0,0.5,24
583,2020-09-07T09:42:00,0,0,0.5,24
584,2020-09-07T09:43:00,0,0,0.5,24
585,2020-09-07T09:44:00,0,0,0.5,24
586,2020-09-07T09:45:00,0,0,0.5,24
587,2020-09-07T09:46:00,0,0,0.5,24
588,2020-09-07T09:47:00,0,0,0.5,24
589,2020-09-07T09:48:00,0,0,0.5,24
590,2020-09-07T09:49:00,0.5,0.5,1,24.5
591,2020-09-07T09:50:00,0.5,0.5,1,24.5
592,2020-09-07T09:51:00,0.5,0.5,1,24.5
593,2020-09-07T09:52:00,0.5,0.5,1,24.5
594,2020-09-07T09:53:00,0.5,0.5,1,24.5
595,2020-09-07T09:54:00,0.5,0.5,1,24.5
596,2020-09-07T09:55:00,0.5,0.5,1,24.5
597,2020-09-07T09:56:00,0.5,0.5,1,24.5
598,2020-09-07T09:57:00,0.5,0.5,1,24.5
599,2020-09-07T09:58:00,0.5,0.5,1,24.5
600,2020-09-07T09:59:00,0,0.5,1,24.5
601,2020-09-07T10:00:00,0,0.5,1,24.5
602,2020-09-07T10:01:00,0,0.5,1,24.5
603,2020-09-07T10:02:00,0,0.5,1,24.5
604,2020-09-07T10:03:00,0,0.5,1,24.5
605,2020-09-07T10:04:00,0,0.5,1,24.5
606,2020-09-07T10:05:00,0,0.5,1,24.5
607,2020-09-07T10:06:00,0.5,1,1.5,25
608,2020-09-07T10:07:00,1,1.5,2,25.5
609,2020-09-07T10:08:00,1,1.5,2,25.5
610,2020-09-07T10:09:00,1.5,2,2.5,26
611,2020-09-07T10:10:00,1.5,2,2.5,26
612,2020-09-07T10:11:00,1.5,2,2.5,26
613,2020-09-07T10:12:00,1.5,2,2.5,26
614,2020-09-07T10:13:00,1.5,2,2.5,26
615,2020-09-07T10:14:00,1.5,2,2.5,26
616,2020-09-07T10:15:00,1.5,2,2.5,26
617,2020-09-07T10:16:00,1,2,2.5,26
618,2020-09-07T10:17:00,1,2.5,3,26.5
619,2020-09-07T10:18:00,1.5,3,3.5,27
620,2020-09-07T10:19:00,1,3,3.5,27
621,2020-09-07T10:20:00,1,3,3.5,27
622,2020-09-07T10:21:00,1.5,3.5,4,27.5
623,2020-09-07T10:22:00,1.5,3.5,4,27.5
624,2020-09-07T10:23:00,2,4,4.5,28
625,2020-09-07T10:24:00,2,4,4.5,28
626,2020-09-07T10:25:00,2,4,4.5,28
627,2020-09-07T10:26:00,2,4,4.5,28
628,2020-09-07T10:27:00,1.5,4,4.5,28
629,2020-09-07T10:28:00,1,4,4.5,28
630,2020-09-07T10:29:00,1,4,4.5,28
631,2020-09-07T10:30:00,1,4,4.5,28
632,2020-09-07T10:31:00,0.5,4,4.5,28
633,2020-09-07T10:32:00,0.5,4,4.5,28
634,2020-09-07T10:33:00,0,4,4.5,28
635,2020-09-07T10:34:00,0,4,4.5,28
636,2020-09-07T10:35:00,0,4,4.5,28
637,2020-09-07T10:36:00,0,4,4.5,28
638,2020-09-07T10:37:00,0,4,4.5,28
639,2020-09-07T10:38:00,0,4,4.5,28
640,2020-09-07T10:39:00,0,4,4.5,28
641,2020-09-07T10:40:00,0,4,4.5,28
642,2020-09-07T10:41:00,0,4,4.5,28
643,2020-09-07T10:42:00,0,4,4.5,28
644,2020-09-07T10:43:00,0,4,4.5,28
645,2020-09-07T10:44:00,0,4,4.5,28
646,2020-09-07T10:45:00,0,4,4.5,28
647,2020-09-07T10:46:00,0,4,4.5,28
648,2020-09-07T10:47:00,0,4,4.5,28
649,2020-09-07T10:48:00,0,4,4.5,28
650,2020-09-07T10:49:00,0,3.5,4.5,28
651,2020-09-07T10:50:00,0,3.5,4.5,28
652,2020-09-07T10:51:00,0,3.5,4.5,28
653,2020-09-07T10:52:00,0,3.5,4.5,28
654,2020-09-07T10:53:00,0,3.5,4.5,28
655,2020-09-07T10:54:00,0,3.5,4.5,28
656,2020-09-07T10:55:00,0,3.5,4.5,28
657,2020-09-07T10:56:00,0,3.5,4.5,28
658,2020-09-07T10:57:00,0,3.5,4.5,28
659,2020-09-07T10:58:00,0,3.5,4.5,28
660,2020-09-07T10:59:00,0,3.5,4.5,28
661,2020-09-07T11:00:00,0,3.5,4.5,28
662,2020-09-07T11:01:00,0,3.5,4.5,28
663,2020-09-07T11:02:00,0,3.5,4.5,28
664,2020-09-07T11:03:00,0,3.5,4.5,28
665,2020-09-07T11:04:00,0,3.5,4.5,28
666,2020-09-07T11:05:00,0,3.5,4.5,28
667,2020-09-07T11:06:00,0,3,4.5,28
668,2020-09-07T11:07:00,0,2.5,4.5,28
669,2020-09-07T11:08:00,0,2.5,4.5,28
670,2020-09-07T11:09:00,0,2,4.5,28
671,2020-09-07T11:10:00,0,2,4.5,28
672,2020-09-07T11:11:00,0,2,4.5,28
673,2020-09-07T11:12:00,0,2,4.5,28
674,2020-09-07T11:13:00,0,2,4.5,28
675,2020-09-07T11:14:00,0,2,4.5,28
676,2020-09-07T11:15:00,0,2,4.5,28
677,2020-09-07T11:16:00,0,2,4.5,28
678,2020-09-07T11:17:00,0,1.5,4.5,28
679,2020-09-07T11:18:00,0,1,4.5,28